第九屆(2018)北區豐盛人生健樂長跑賽
9 Dec 2018 Sunday - Temperature: 12.7C Humidity: 82%
2km
組別名稱 賽程總名次 組別名次 號碼布編號 中文姓名 英文姓名 大會時間
RaceCatNameChi RkOverall RkCat Bib NameChi NameEng OfficialTime
2公里歡樂跑 1 1 9183 陳嘉嶸 Chan Ka Wing  00:10:41 
2公里歡樂跑 2 2 9388 葉錦培 Yip Kam Pui Lewis   00:11:05 
2公里歡樂跑 3 3 9407 陳趙宇 Chen Chu Yu   00:11:29 
2公里歡樂跑 4 4 9297 麥子言 Mak Tsz Yin Daniel  00:11:33 
2公里歡樂跑 5 5 9442 黃俊偉 Wong Chun Wai  00:11:35 
2公里歡樂跑 6 6 9379 謝志鴻 Xie Chi Hung   00:11:35 
2公里歡樂跑 7 7 9453 劉勰政 Lau Hip Ching  00:11:38 
2公里歡樂跑 8 8 9452 劉㦤康 Lau Elvis Yee Hong  00:11:39 
2公里歡樂跑 9 9 9479 崔得力 Chiu Tak Lik  00:11:41 
2公里歡樂跑 10 10 9205 蘇恩澤 So Yan Chak  00:11:49 
2公里歡樂跑 11 11 9268 李子鴻 Li Tsz Hung  00:11:57 
2公里歡樂跑 12 12 9441 黃俊傑 Wong Chun Kit  00:12:01 
2公里歡樂跑 13 13 9316 吳浩軒 Wu Hao Xuan Leo   00:12:06 
2公里歡樂跑 14 14 9304 葉惠霖 Yip Wai Lam Lily   00:12:15 
2公里歡樂跑 15 15 9065 梁懿謙 Leung Yi Him  00:12:25 
2公里歡樂跑 16 16 9274 黎正行 Lai Ching Hang  00:12:31 
2公里歡樂跑 17 17 9389 喻遵書 Yu Chun Shu   00:12:32 
2公里歡樂跑 18 18 9454 黃敏禎 Wong Man Ching IRIS  00:12:33 
2公里歡樂跑 19 19 9267 陳穎恩 Chan Wing Yan  00:12:40 
2公里歡樂跑 20 20 9063 郭泓鋒 Kwok Wang Fung  00:12:46 
2公里歡樂跑 21 21 9258 馮志毅 Fung Chi Ngai  00:12:53 
2公里歡樂跑 22 22 9413 謝嘉琪 Xie Ka Ki   00:12:54 
2公里歡樂跑 23 23 9425 黃笑勤 Wong Siu Ken  00:13:01 
2公里歡樂跑 24 24 9091 黎相承 Lai Sheung Shing Shane  00:13:08 
2公里歡樂跑 25 25 9434 何世昌 Ho Sai Cheong  00:13:08 
2公里歡樂跑 26 26 9458 譚溍逸 Tam Chun Yat  00:13:13 
2公里歡樂跑 27 27 9480 崔得悅 Chui Tat Yuet  00:13:19 
2公里歡樂跑 28 28 9260 羅宇彤 Luo Yu Tung  00:13:25 
2公里歡樂跑 29 29 9391 曾創鴻 Zenq Chonq Hung   00:13:26 
2公里歡樂跑 30 30 9154 麥熙童 Mai Polly  00:13:31 
2公里歡樂跑 31 31 9029 陳瑋聰 Chan Wai Chung  00:13:35 
2公里歡樂跑 32 32 9079 霍偉聰 Fok Wai Chung  00:13:35 
2公里歡樂跑 33 33 9028 陳永棠 Chan Wing Tong  00:13:36 
2公里歡樂跑 34 34 9009 倪綽霖 Ngai Cheuk Lam  00:13:46 
2公里歡樂跑 35 35 9404 張嘉豪 Zhang Jiahao   00:13:50 
2公里歡樂跑 36 36 9308 高仲 Ko Chung   00:13:51 
2公里歡樂跑 37 37 9466 曾景生 Tsang King Sang  00:13:57 
2公里歡樂跑 38 38 9435 何弘毅 Ho Wew Ngai  00:14:03 
2公里歡樂跑 39 39 9456 羅志祥 Law Chi Cheung  00:14:04 
2公里歡樂跑 40 40 9468 曾家豪 Tsang Ka Ho  00:14:08 
2公里歡樂跑 41 41 9203 葉華生 Yip Wa Sang  00:14:14 
2公里歡樂跑 42 42 9062 郭泓鍵 Kwok Wang Kin  00:14:14 
2公里歡樂跑 43 43 9099 黎志剛 Lai Chi Kwong  00:14:16 
2公里歡樂跑 44 44 9100 彭雪瑩 Pang Suet Ying  00:14:17 
2公里歡樂跑 45 45 9409 何嘉榮 He Ka Wing  00:14:23 
2公里歡樂跑 46 46 9144 林芷蔚 Lam Tsz Wai  00:14:25 
2公里歡樂跑 47 47 9820 黃悅心 Wong Yunt Sun  00:14:26 
2公里歡樂跑 48 48 9248 黃啓賢 Wong Kai Yin  00:14:27 
2公里歡樂跑 49 49 9133 劉芷茵 Lau Tsz Yan  00:14:27 
2公里歡樂跑 50 50 9439 蘇杰燊 So Kit San  00:14:28 
2公里歡樂跑 51 51 9076 關紫晴 Kwan Tsz Ching  00:14:29 
2公里歡樂跑 52 52 9192 黃逸軒 Wong yat hin  00:14:30 
2公里歡樂跑 53 53 9128 盧天禮 Lo Tin Lai  00:14:31 
2公里歡樂跑 54 54 9127 盧旭升 Lo Yuk Sing  00:14:33 
2公里歡樂跑 55 55 9777 黃震鵬 KOBEISSI HASAN  00:14:34 
2公里歡樂跑 56 56 9060 范逸齊 Fan Yat Chai  00:14:40 
2公里歡樂跑 57 57 9164 何文睿 Ho Man Yui  00:14:43 
2公里歡樂跑 58 58 9201 葉慧欣 YipWai Yan  00:14:45 
2公里歡樂跑 59 59 9331 何健銘 He Kin Ming   00:14:46 
2公里歡樂跑 60 60 9325 殷浩政 Yan Ho Ching   00:14:47 
2公里歡樂跑 61 61 9306 周駿軒 Chow Chun Hin   00:14:49 
2公里歡樂跑 62 62 9769 鍾子明 ZHONG TSZ MING  00:14:50 
2公里歡樂跑 63 63 9024 林紫蒨 Green Lalita  00:14:50 
2公里歡樂跑 64 64 9003 王漢文 Wong Hon Man  00:14:51 
2公里歡樂跑 65 65 9448 袁睿鍇 Yuen Yui Kai  00:14:52 
2公里歡樂跑 66 66 9147 鄧澔渝 Tang Ho Yu  00:14:52 
2公里歡樂跑 67 67 9447 曾煒倫 Tsang Wai Lun  00:14:52 
2公里歡樂跑 68 68 9249 黃志新 Wong Chi Sun  00:14:55 
2公里歡樂跑 69 69 9357 王博灝 Wang Ryan   00:14:57 
2公里歡樂跑 70 70 9073 蕭士博 XIAO STEPHEN  00:15:03 
2公里歡樂跑 71 71 9102 黎籽希 Lai Tse Hei  00:15:04 
2公里歡樂跑 72 72 9105 溫梓燁 Wan Tsz Yip  00:15:07 
2公里歡樂跑 73 73 9412 聶楓 Nip Funq   00:15:08 
2公里歡樂跑 74 74 9763 胡玉東 HU YU DONG  00:15:08 
2公里歡樂跑 75 75 9359 蕭揚揚 Xiao Anson   00:15:11 
2公里歡樂跑 76 76 9269 彭文潔 Pang Man Kit Kitty  00:15:11 
2公里歡樂跑 77 77 9375 華子燁 Hua Edward   00:15:11 
2公里歡樂跑 78 78 9567 湯騏嘉 TANG QIJIA  00:15:12 
2公里歡樂跑 79 79 9828 趙睿桁 Chiu Yui Hang  00:15:14 
2公里歡樂跑 80 80 9326 庄卓楷 Zhuang Cheuk Kai   00:15:15 
2公里歡樂跑 81 81 9074 黃惠婷 HUANG HUI TING  00:15:17 
2公里歡樂跑 82 82 9298 馮樂韜 Feng Auston Lok To   00:15:18 
2公里歡樂跑 83 83 9405 莊智博 Zhuang Chi Pok   00:15:18 
2公里歡樂跑 84 84 9245 余珮賢 Yu Pui Yin  00:15:20 
2公里歡樂跑 85 85 9635 伍錦昊 WU KAM HO  00:15:22 
2公里歡樂跑 86 86 9072 蕭亦言 XIAO VICKY  00:15:22 
2公里歡樂跑 87 87 9052 錢衍儒 Chin Hin Yu  00:15:23 
2公里歡樂跑 88 88 9050 石麗麗 Shek Lai Ha  00:15:24 
2公里歡樂跑 89 89 9459 陸樹基 Luk Shu Kei  00:15:24 
2公里歡樂跑 90 90 9333 黃睿洋 Huang Ruiyang   00:15:25 
2公里歡樂跑 91 91 9637 馮冠誼 FENG GUAN YI  00:15:29 
2公里歡樂跑 92 92 9645 王洛汶 WONG LOK MAN  00:15:29 
2公里歡樂跑 93 93 9455 蘇潁汶 So Wing Man  00:15:30 
2公里歡樂跑 94 94 9719 庫麗 KU LI  00:15:31 
2公里歡樂跑 95 95 9481 崔載恩 Chui Choi Yan  00:15:33 
2公里歡樂跑 96 96 9265 許錦峰 Xu Jin Feng  00:15:33 
2公里歡樂跑 97 97 9437 張政仁 Cheung Quincy  00:15:35 
2公里歡樂跑 98 98 9438 何美玲 Ho Mei Ling  00:15:36 
2公里歡樂跑 99 99 9457 鄭秀嫻 Cheng Sau Han  00:15:40 
2公里歡樂跑 100 100 9718 余子樂 YU TSZ LOK  00:15:40 
2公里歡樂跑 101 101 9166 何詠基 Ho Wing Kei  00:15:41 
2公里歡樂跑 102 102 9675 徐周之 XU ZHOUZHI  00:15:41 
2公里歡樂跑 103 103 9693 王孟林 WANG MENG LIN  00:15:41 
2公里歡樂跑 104 104 9692 陳美霖 CHAN MEI LAM  00:15:43 
2公里歡樂跑 105 105 9349 胡嘉叡 Hu Ka Yui   00:15:45 
2公里歡樂跑 106 106 9187 詹皓琳 Chim Ho Lam  00:15:54 
2公里歡樂跑 107 107 9741 葉誠謙 YIP SHING HIM  00:15:59 
2公里歡樂跑 108 108 9742 葉家偉 YIP KA WAI  00:16:03 
2公里歡樂跑 109 109 9633 黃鍶穎 HUANG SZE WING  00:16:06 
2公里歡樂跑 110 110 9172 郭曉慧 Kwok Hiu Wai  00:16:07 
2公里歡樂跑 111 111 9001 郭俊毅 Kuo Chun Ngai  00:16:07 
2公里歡樂跑 112 112 9010 郭家叡 Kuo Ka Yui  00:16:08 
2公里歡樂跑 113 113 9463 黃嘉輝 Wong Ka Fai  00:16:09 
2公里歡樂跑 114 114 9464 黃紀然 Wong Kei Yin  00:16:09 
2公里歡樂跑 115 115 9403 張凱崴 Zhang Hoi Wai   00:16:12 
2公里歡樂跑 116 116 9400 廖梓充 Liao Tsz Chung   00:16:13 
2公里歡樂跑 117 117 9337 李煖梅 Li Nuen Mui   00:16:15 
2公里歡樂跑 118 118 9716 楊巽森 YANG YU YU  00:16:15 
2公里歡樂跑 119 119 9701 王茆 WONG MAU  00:16:15 
2公里歡樂跑 120 120 9507 劉悅 LAU Yuet   00:16:19 
2公里歡樂跑 121 121 9384 黎柏熹 Lai Pak Hei  00:16:19 
2公里歡樂跑 122 122 9371 謝嘉瑋 Xie Ka Wai   00:16:19 
2公里歡樂跑 123 123 9418 謝智謙 Tse Chi Him   00:16:20 
2公里歡樂跑 124 124 9786 陳美珊 CHAN MEI SHAN  00:16:20 
2公里歡樂跑 125 125 9787 陳偉強 CAHAN WAI KEUNG  00:16:20 
2公里歡樂跑 126 126 9317 蔡紫寧 Cai Charlie   00:16:21 
2公里歡樂跑 127 127 9363 葉倩妤 Ye Sinue   00:16:22 
2公里歡樂跑 128 128 9339 羅嘉穎 Luo Ka Wing   00:16:22 
2公里歡樂跑 129 129 9362 許煌煒 Xu Huang Wei   00:16:22 
2公里歡樂跑 130 130 9320 梁珊詩 Leung Pui Sze   00:16:24 
2公里歡樂跑 131 131 9184 鄭丞皓 Cheng Shing Ho  00:16:31 
2公里歡樂跑 132 132 9280 吳浩軒 Ng Ho Hin  00:16:31 
2公里歡樂跑 133 133 9109 何燕 Ho Yin Han Sandy  00:16:33 
2公里歡樂跑 134 134 9041 王鐵權 Wong Tit Kuen Kent  00:16:38 
2公里歡樂跑 135 135 9122 馬思洛 Ma Sze Lik  00:16:39 
2公里歡樂跑 136 136 9040 王信泓 Wong Shun Wang Viol  00:16:39 
2公里歡樂跑 137 137 9121 馬思澄 Ma Sze Ching  00:16:40 
2公里歡樂跑 138 138 9529 劉昊揚 LIU HAO YANG  00:16:42 
2公里歡樂跑 139 139 9423 鄒瑞芬 Zou Ruifun  00:16:43 
2公里歡樂跑 140 140 9449 冷學琴 Leng Xueqin  00:16:43 
2公里歡樂跑 141 141 9092 黎一脈 Lai Yat Mak  00:16:43 
2公里歡樂跑 142 142 9424 鄒運梅 Zou Yunmei  00:16:43 
2公里歡樂跑 143 143 9296 鄧碧珊 Tang Pik Shan  00:16:46 
2公里歡樂跑 144 144 9385 謝智傑 Tse Chi Kit   00:16:46 
2公里歡樂跑 145 145 9465 曾卓生 Tsang Cheuk Sang  00:16:48 
2公里歡樂跑 146 146 9562 李雨珈 LI YU JIA  00:16:48 
2公里歡樂跑 147 147 9561 何天一 HO TIN YAI  00:16:49 
2公里歡樂跑 148 148 9460 陸泓睿 Luk Wang Yui  00:16:57 
2公里歡樂跑 149 149 9064 張惠芳 Cheung Wai Fong  00:16:59 
2公里歡樂跑 150 150 9354 黎家業 Li Jia Ye   00:17:02 
2公里歡樂跑 151 151 9785 李宏業 LEE WANG YIP  00:17:02 
2公里歡樂跑 152 152 9199 廖明慧 Liu Ming Wai  00:17:03 
2公里歡樂跑 153 153 9513 彭博 PANG POK  00:17:03 
2公里歡樂跑 154 154 9821 高梓堯 Koo Tze Yiu  00:17:03 
2公里歡樂跑 155 155 9822 高方毅 Koo Fong Ngai  00:17:05 
2公里歡樂跑 156 156 9660 黃麗潔 HUANG LI JIE  00:17:07 
2公里歡樂跑 157 157 9066 吳惠玲 Ng Wai Ling IDA  00:17:09 
2公里歡樂跑 158 158 9101 黎家妤 Lai Ka  Ue  00:17:12 
2公里歡樂跑 159 159 9467 王家敏 Wong Ka Man Carmen  00:17:14 
2公里歡樂跑 160 160 9272 潘詠儀 Poon Wing Yi Ruby  00:17:16 
2公里歡樂跑 161 161 9508  劉溢 LAU Yat   00:17:17 
2公里歡樂跑 162 162 9753 羅承哲 LAW SHING CHIT  00:17:17 
2公里歡樂跑 163 163 9754 羅冠華 LAW KOON WAH  00:17:17 
2公里歡樂跑 164 164 9545 何善行 HO SIN HANG  00:17:19 
2公里歡樂跑 165 165 9546 黃晉珍 HUANG JIN ZHEN  00:17:20 
2公里歡樂跑 166 166 9725 薛秀芳 SIT SAU FONG  00:17:23 
2公里歡樂跑 167 167 9444 羅家瑩 Lo Ka Ying  00:17:24 
2公里歡樂跑 168 168 9530 任紅 REN HONG  00:17:25 
2公里歡樂跑 169 169 9131 李喬哲 Li Kiu Chit  00:17:25 
2公里歡樂跑 169 169 9139 鄧立希 Tang Lap Hay Adrian  00:17:25 
2公里歡樂跑 171 171 9030 胡錫恩 Wu Sik Yan Stephen  00:17:26 
2公里歡樂跑 172 172 9007 戴翔竣 Tai Cheung Chun  00:17:27 
2公里歡樂跑 173 173 9032 胡芷齊 Wu Tze Chai  00:17:27 
2公里歡樂跑 174 174 9246 何培桂 Ho Pui Kwai  00:17:32 
2公里歡樂跑 175 175 9668 徐蓉 XU RONG  00:17:32 
2公里歡樂跑 176 176 9506 吳嘉雯 NG Ka- man   00:17:33 
2公里歡樂跑 177 177 9259 林宇齊 Adam Lam  00:17:34 
2公里歡樂跑 178 178 9302 譚惟駿 Tam Wai Chun   00:17:35 
2公里歡樂跑 179 179 9399 馬家驍 Ma Jiaxiao Jesse   00:17:36 
2公里歡樂跑 180 180 9570 黃麗    00:17:38 
2公里歡樂跑 181 181 9628 梁博文 LEUNG POK MAN  00:17:40 
2公里歡樂跑 182 182 9629 黃曉梅 HUANG XIAO MEI  00:17:41 
2公里歡樂跑 183 183 9120 黃裕煒 Wong Yue Wai  00:17:41 
2公里歡樂跑 184 184 9723 馮耀強 FUNG YIU KEUNG  00:17:41 
2公里歡樂跑 185 185 9724 劉子晴 LAU TSZ CHING  00:17:43 
2公里歡樂跑 186 186 9722 馮語昕 FUNG YU YAN  00:17:43 
2公里歡樂跑 187 187 9314 涂柏瑞 Tu Borui   00:17:43 
2公里歡樂跑 188 188 9270 彭文淨 Pang Man Tseng  00:17:45 
2公里歡樂跑 189 189 9764 李興平 LI XING PING  00:17:45 
2公里歡樂跑 190 190 9443 鄭建芳 Zheng Jianfang  00:17:46 
2公里歡樂跑 191 191 9301 劉政輝 Liu Ching Fai   00:17:49 
2公里歡樂跑 192 192 9687 吳佐源 WU ZUOYUAN JOE  00:17:50 
2公里歡樂跑 193 193 9017 彭梓茵 Pang Tsz Yan  00:17:51 
2公里歡樂跑 194 194 9049 錢展彬 Chin Chin Pan  00:17:52 
2公里歡樂跑 195 195 9756 鍾燕冬 ZHONG YAN DONG  00:17:53 
2公里歡樂跑 196 196 9051 錢衍彤 Chin Hin Tung  00:17:53 
2公里歡樂跑 197 197 9281 吳卓瑤 Ng Cheuk Yiu  00:17:55 
2公里歡樂跑 198 198 9574 羅俊熙 LAW CHUN HEI  00:17:57 
2公里歡樂跑 199 199 9575 楊彩燕 YANG CAI YAN  00:17:57 
2公里歡樂跑 200 200 9278 吳冠偉 Ng Koon Wai  00:17:57 
2公里歡樂跑 201 201 9659 冼柏宇 XIAN BO YU  00:18:00 
2公里歡樂跑 202 202 9111 林美芬 Lam Mei Fun  00:18:00 
2公里歡樂跑 203 203 9689 吳遠林 WU YUAN LIN  00:18:00 
2公里歡樂跑 204 204 9446 曾江紅 Tsang Kong Hung  00:18:01 
2公里歡樂跑 205 205 9670 梁振誠 LIANG CHUN SHING  00:18:01 
2公里歡樂跑 206 206 9305 白梓涵 Bai Zihan  00:18:02 
2公里歡樂跑 207 207 9110 李鈺妍 Li Yuk Yin Nadia  00:18:04 
2公里歡樂跑 208 208 9790 朱偉林 Chu Wai Lam  00:18:04 
2公里歡樂跑 209 209 9686 吳正煜 WU ZHENGYU GLORY  00:18:06 
2公里歡樂跑 210 210 9170 董守中 Tung Sau Chung  00:18:07 
2公里歡樂跑 211 211 9167 何卓謙 Ho Cheuk Him  00:18:09 
2公里歡樂跑 212 212 9011 陳錦輝 Chan Kam Fai  00:18:09 
2公里歡樂跑 213 213 9012 陳浩堃 Chan Ho Kwan   00:18:10 
2公里歡樂跑 214 214 9031 徐晶 Tsui Ching  00:18:11 
2公里歡樂跑 215 215 9683 梁嘉儀 LEUNG KE YEE  00:18:13 
2公里歡樂跑 216 216 9156 萬釨華 Man Tse Wa  00:18:13 
2公里歡樂跑 217 217 9682 梁詩敏 LEUNG SZE MAN  00:18:13 
2公里歡樂跑 218 218 9163 劉俊仁 Lau Chun Yan  00:18:14 
2公里歡樂跑 219 219 9155 鄭振鋒 Zhong Chun Fung  00:18:14 
2公里歡樂跑 220 220 9638 趙智浠 ZHAO ZHIXI  00:18:15 
2公里歡樂跑 221 221 9309 梁蔚馨 Liang Wai Hing   00:18:15 
2公里歡樂跑 222 222 9640 趙富琚    00:18:16 
2公里歡樂跑 223 223 9180 黃英傑 Wong Ying Kit  00:18:16 
2公里歡樂跑 224 224 9182 黃堂 Wong Tong  00:18:18 
2公里歡樂跑 225 225 9571 邱增亮  00:18:19 
2公里歡樂跑 226 226 9829 趙芍知 Chiu Cheuk Chi  00:18:19 
2公里歡樂跑 227 227 9250 鄺秀琼 Kwong Sau King  00:18:21 
2公里歡樂跑 228 228 9781 陳綺君 CHAN YEE KWAN  00:18:21 
2公里歡樂跑 229 229 9827 蘇詠嫦 So Wing Sheung  00:18:22 
2公里歡樂跑 230 230 9490 李恩翹 Lee Yan Kiu  00:18:23 
2公里歡樂跑 231 231 9493 梁雪盈 Leung Suet Ying  00:18:23 
2公里歡樂跑 232 232 9494 廖嘉慧 Liu Ka Wai  00:18:23 
2公里歡樂跑 233 233 9482 鄒啟明 Chow Kai Ming  00:18:24 
2公里歡樂跑 234 234 9499 周君怡 Chou Kwan Yee  00:18:24 
2公里歡樂跑 235 235 9676 周宋燕  00:18:24 
2公里歡樂跑 236 236 9673 葉溰莉 YE HOLLY HOI LEE  00:18:25 
2公里歡樂跑 237 237 9674 葉燕紅 YE YAN HONG  00:18:26 
2公里歡樂跑 238 238 9636 伍江濤 WU JIANG TAO  00:18:26 
2公里歡樂跑 239 239 9343 陶煒然 Tao Wai Yin   00:18:27 
2公里歡樂跑 240 240 9006 黃金良 Wong Kam Leung  00:18:31 
2公里歡樂跑 241 241 9275 袁麗月 Yuen Lai Yuet  00:18:33 
2公里歡樂跑 242 242 9367 鄭霖霖 Zhen Lam Lam  00:18:34 
2公里歡樂跑 243 243 9344 溫悅詩 Wen Yuet Sze   00:18:35 
2公里歡樂跑 244 244 9695 伍家欣 WU KA YAN  00:18:36 
2公里歡樂跑 245 245 9348 范珈瑜 Fan Jenny   00:18:36 
2公里歡樂跑 246 246 9469 楊綺雯 Yeung Yee Man  00:18:37 
2公里歡樂跑 247 247 9162 劉倬妃 Lau Cheffy  00:18:37 
2公里歡樂跑 248 248 9470 陳皓晴 Chan Ho Ching  00:18:37 
2公里歡樂跑 249 249 9383 胡鎣 Hu Ying  00:18:37 
2公里歡樂跑 250 250 9387 葉樂心 Yip Angel Loksun   00:18:39 
2公里歡樂跑 251 251 9324 王影霖 Wang Devin   00:18:42 
2公里歡樂跑 252 252 9271 張浩恩 Cheung Ho Yan  00:18:42 
2公里歡樂跑 253 253 9075 黎展清 LI ZHANQING  00:18:44 
2公里歡樂跑 254 254 9053 郭頌茵 Kwok Chung Yan  00:18:46 
2公里歡樂跑 255 255 9005 郭京哲 Kwok King Chit Marcus  00:18:46 
2公里歡樂跑 256 256 9146 林嘉寳 Lam Ka Po  00:18:46 
2公里歡樂跑 257 257 9145 梁佩笙 Leung Anthony  00:18:47 
2公里歡樂跑 258 258 9179 沈晉謙 Sum Chun Him Adrian  00:18:47 
2公里歡樂跑 259 259 9597 林碧清 LIN BI QING  00:18:50 
2公里歡樂跑 260 260 9596 陳楷源 CHEN KAIYUAN  00:18:50 
2公里歡樂跑 261 261 9656 張勉春 ZHANG MIAN CHUN  00:18:52 
2公里歡樂跑 262 262 9654 謝梓怡 XIE ZIYI  00:18:52 
2公里歡樂跑 263 263 9639 韋雪霞  00:18:53 
2公里歡樂跑 264 264 9445 李惠蘭 Li Wai Lan  00:18:54 
2公里歡樂跑 265 265 9090 李洪華 Lee Hung Wah  00:18:55 
2公里歡樂跑 266 266 9089 鍾淑貞 Chung Shuk Ching  00:18:56 
2公里歡樂跑 267 267 9134 謝鶴年 Tse Hok Nin  00:18:57 
2公里歡樂跑 268 268 9114 曾玉琴 Tsang Yuk Kam  00:18:58 
2公里歡樂跑 269 269 9527 麥梓齊 MAK ZI QI  00:19:00 
2公里歡樂跑 270 270 9743 譚田香 TAN TIAN XIANG  00:19:00 
2公里歡樂跑 271 271 9744 葉若曦 YIP YEAK HEI  00:19:01 
2公里歡樂跑 272 272 9779 陳梓薇 CHEN TSZ MEI  00:19:02 
2公里歡樂跑 273 273 9255 蕭仲芬 Siu Chung Fun  00:19:02 
2公里歡樂跑 274 274 9767 黃勇衡 HUANG YUNG HANG  00:19:03 
2公里歡樂跑 275 275 9746 劉東 LIU DONG  00:19:06 
2公里歡樂跑 276 276 9279 吳浩然 Ng Ho Yin  00:19:07 
2公里歡樂跑 277 277 9282 陳文麗 Chan Man Lai  00:19:07 
2公里歡樂跑 278 278 9059 林巧怡 Lam Hua Yee  00:19:11 
2公里歡樂跑 279 279 9655 謝鋒耿 XIE FENG GENG  00:19:13 
2公里歡樂跑 280 280 9392 胡慧瑩 Hu Wai Ying   00:19:14 
2公里歡樂跑 281 281 9653 謝東宜 XIE DONGYI  00:19:17 
2公里歡樂跑 282 282 9666 楊莉 YANG LI  00:19:17 
2公里歡樂跑 283 283 9734 廖頴禧 LIU WING HEI  00:19:17 
2公里歡樂跑 284 284 9058 范偉明 Fan Wai Ming  00:19:19 
2公里歡樂跑 285 285 9757 蕭世民 SIU SAI MAN  00:19:19 
2公里歡樂跑 286 286 9440 蘇俊熹 So Chun Hei  00:19:20 
2公里歡樂跑 287 287 9177 沈悅 Sum Yuet Angle  00:19:20 
2公里歡樂跑 288 288 9061 范以喬 Fan Yi Kiu  00:19:21 
2公里歡樂跑 289 289 9758 許小青 HUI SIU CHING  00:19:21 
2公里歡樂跑 290 290 9178 杜詠恩 To Wing Yan  00:19:22 
2公里歡樂跑 291 291 9665 葉澤生 YIP CHAK SANG  00:19:23 
2公里歡樂跑 292 292 9462 李昊天 Li Ho Tin Jacky  00:19:23 
2公里歡樂跑 293 293 9261 彭俊諾 Pang Chun Nok  00:19:24 
2公里歡樂跑 294 294 9119 賴穎儀 Lai Wing Yee  00:19:25 
2公里歡樂跑 295 295 9749 趙雙全 GARY CHIU  00:19:27 
2公里歡樂跑 296 296 9688 周俊娥 ZHOU JUNE  00:19:28 
2公里歡樂跑 297 297 9667 胡倫暢 HU LUN CHANG  00:19:28 
2公里歡樂跑 298 298 9783 阮子羿 YUEN TSZ NGAI  00:19:28 
2公里歡樂跑 299 299 9831 HAU CHUN HO  00:19:29 
2公里歡樂跑 300 300 9395 陳諾賢 Chan Nok Yin   00:19:30 
2公里歡樂跑 301 301 9704 關鎧嵐 KWAN HO LAAM  00:19:30 
2公里歡樂跑 302 302 9115 侯佩珈 Hau Pui Ka  00:19:30 
2公里歡樂跑 302 302 9116 侯漢裕 Hau Hon Yu  00:19:30 
2公里歡樂跑 304 304 9021 梁穎詩 Leung Wing Sze Grace  00:19:31 
2公里歡樂跑 305 305 9020 石朗熹 Shek Long Hei  00:19:31 
2公里歡樂跑 306 306 9019 趙婉儀 Chiu Yuen Yee  00:19:31 
2公里歡樂跑 307 307 9142 麥皓銘 Mak Ho Ming  00:19:32 
2公里歡樂跑 308 308 9748 趙穎彤 CHIU WING TUNG  00:19:33 
2公里歡樂跑 309 309 9207 葉梓浩 Yip Tsz Ho  00:19:33 
2公里歡樂跑 310 310 9735 廖志偉 LIU CHI WAI  00:19:35 
2公里歡樂跑 311 311 9770 鍾子萱 ZHONG TSZ XUAN  00:19:35 
2公里歡樂跑 312 312 9558 劉興華 LIU XING HUA  00:19:36 
2公里歡樂跑 313 313 9342 容梓軒 Rong Tsz Hin   00:19:37 
2公里歡樂跑 314 314 9335 黃振豪 Huang Zhenhao   00:19:37 
2公里歡樂跑 315 315 9557 劉錦霞 LIU KAM HA  00:19:39 
2公里歡樂跑 316 316 9652 黃蓉 HUANG RONG  00:19:39 
2公里歡樂跑 317 317 9208 葉華明 Yip Wa Ming  00:19:39 
2公里歡樂跑 318 318 9206 歐黛雪 Ou Daixue  00:19:40 
2公里歡樂跑 319 319 9112 鍾慧娟 Chung Wai Kuen  00:19:41 
2公里歡樂跑 320 320 9043 伍竣軒 Ng Chun Hin  00:19:42 
2公里歡樂跑 321 321 9045 伍竣晞 Ng Chun Hei  00:19:42 
2公里歡樂跑 322 322 9726 黃灝懿 HUANG HO YI  00:19:43 
2公里歡樂跑 323 323 9650 張國升  00:19:44 
2公里歡樂跑 324 324 9093 殷蕙紅 Yan Wai Hung  00:19:47 
2公里歡樂跑 325 325 9069 許鑽芬 Hui Chuen Fan Angela  00:19:48 
2公里歡樂跑 326 326 9617 部敬娜    00:19:48 
2公里歡樂跑 327 327 9396 陳嘉淇 Chen Ka Ki   00:19:48 
2公里歡樂跑 328 328 9300 李悅 Li Yue   00:19:50 
2公里歡樂跑 329 329 9606 蔡慧兒 CAI WAI YI  00:19:52 
2公里歡樂跑 330 330 9607 蔡灿生 CAI CAN  00:19:52 
2公里歡樂跑 331 331 9486 卓欣彤 Chek Yan Tung  00:19:53 
2公里歡樂跑 332 332 9022 林金山 Green Greg  00:19:53 
2公里歡樂跑 333 333 9491 鄭嘉欣 Cheng Ka Yan  00:19:57 
2公里歡樂跑 334 334 9648 張子軒 CHEUNG TSZ HIN JERRY  00:19:57 
2公里歡樂跑 335 335 9398 黎鈞賢 Lai Kwan Yin   00:19:57 
2公里歡樂跑 336 336 9651 鄒昊成 ZOU HO SHING  00:19:58 
2公里歡樂跑 337 337 9044 伍慶延 Ng Hing Yin  00:19:59 
2公里歡樂跑 338 338 9386 熊梓瑩 Xiong Tsz Ying   00:20:01 
2公里歡樂跑 339 339 9473 樊諾文 Fan Lok Man  00:20:04 
2公里歡樂跑 340 340 9234 李秀蕊 Lie Xiu Rui  00:20:04 
2公里歡樂跑 341 341 9224 魏茂楨 Ngai Mou Ching  00:20:04 
2公里歡樂跑 342 342 9034 鄧永堅 Tang Wing Kin  00:20:05 
2公里歡樂跑 343 343 9225 林淑琴 Lam Shuk Kan  00:20:07 
2公里歡樂跑 344 344 9107 何家鉅 Ho Ka Kui  00:20:09 
2公里歡樂跑 345 345 9108 馮淑嫻 Fung Shuk Han  00:20:09 
2公里歡樂跑 346 346 9472 樊晞彤 Fan Hei Tung  00:20:10 
2公里歡樂跑 347 347 9595 肖紅  00:20:10 
2公里歡樂跑 348 348 9502 胡慧敏 Woo Wai Man  00:20:10 
2公里歡樂跑 349 349 9471 伍碧君 Ng Pik Kwan  00:20:11 
2公里歡樂跑 350 350 9631 陳卓霖 CHAN CHEUK LAM WILLAM  00:20:11 
2公里歡樂跑 351 351 9564 劉芳 LIU FANG  00:20:13 
2公里歡樂跑 352 352 9563 余汶熹 YU MAN HEI AUDREY  00:20:15 
2公里歡樂跑 353 353 9263 何嘉欣 Ho Ka Yan  00:20:16 
2公里歡樂跑 354 354 9264 周紈葇 Chow Yuen Yau  00:20:19 
2公里歡樂跑 355 355 9773 趙立臣 ZHAO LI CHEN  00:20:19 
2公里歡樂跑 356 356 9643 丘霖峰 QIU LAM FUNG  00:20:19 
2公里歡樂跑 357 357 9315 王梓歡 Wang Tsz Fun   00:20:20 
2公里歡樂跑 358 358 9784 阮健興 YUEN KIN HING  00:20:20 
2公里歡樂跑 359 359 9772 趙乙菲 ZHAO YI FEI  00:20:20 
2公里歡樂跑 360 360 9542 葉子涵 YE ZIHAN  00:20:21 
2公里歡樂跑 361 361 9543 周超 ZHOU CHAO  00:20:21 
2公里歡樂跑 362 362 9436 李艷霞 Li Yin Ha  00:20:26 
2公里歡樂跑 363 363 9257 梁麗貞 Leung Lai Ching Grace  00:20:27 
2公里歡樂跑 364 364 9103 溫偉斌 Wan Wai Pun  00:20:28 
2公里歡樂跑 365 365 9256 李崇高 Li Sung Ko  00:20:29 
2公里歡樂跑 366 366 9501 倫熙估 Lun Hei Yau  00:20:29 
2公里歡樂跑 367 367 9323 彭嘉瑚 Peng Jia Lu  00:20:32 
2公里歡樂跑 368 368 9504 胡慧珠 Woo Wai Chu  00:20:34 
2公里歡樂跑 369 369 9646 嚴瑾 YAN KAN  00:20:39 
2公里歡樂跑 370 370 9641 劉廣業 LIU KWONG YIP  00:20:39 
2公里歡樂跑 371 371 9647 毛燕麗 MAO YAN LI  00:20:40 
2公里歡樂跑 372 372 9642 余麗貞 YU LI ZHEN  00:20:40 
2公里歡樂跑 373 373 9662 袁惠嫦 YUAN WAI SHEUNG  00:20:41 
2公里歡樂跑 374 374 9745 劉裕豪 LIU YU HO  00:20:42 
2公里歡樂跑 375 375 9669 梁瑾欣 LIANG JINXIN LINDA  00:20:42 
2公里歡樂跑 376 376 9755 劉顯華 LAU HIN WA  00:20:42 
2公里歡樂跑 377 377 9585 林晏瑤 LIN AN YIU  00:20:44 
2公里歡樂跑 378 378 9727 莊茹 ZHUANG RU  00:20:45 
2公里歡樂跑 379 379 9830 黎嘉豪 Lai Ka Ho  00:20:46 
2公里歡樂跑 380 380 9791 陳嘉駿 Chan Ka Chun   00:20:46 
2公里歡樂跑 381 381 9242 蕭結桃 Siu Kit To  00:20:51 
2公里歡樂跑 382 382 9592 蔡宏基 CAI HONGJI  00:20:52 
2公里歡樂跑 383 383 9593 陳海英 CHAN HAI YING  00:20:52 
2公里歡樂跑 384 384 9046   MISLIYAH  00:20:57 
2公里歡樂跑 385 385 9152 吳苡煊 Ng I Hyun  00:20:57 
2公里歡樂跑 386 386 9584 林清月 LIN QING YUE  00:20:58 
2公里歡樂跑 387 387 9153 吳義文 Ricky Ng  00:20:59 
2公里歡樂跑 388 388 9149 吳嘉蕊 Keanna Ng  00:20:59 
2公里歡樂跑 389 389 9148 吳焯崙 Kenji Ng  00:21:01 
2公里歡樂跑 390 390 9736 汪婧妮 WONG JING NI  00:21:04 
2公里歡樂跑 391 391 9035 鄧禮勤 Tang Lai Kan  00:21:08 
2公里歡樂跑 392 392 9699 邱海晁 QIU HOI CHIU  00:21:09 
2公里歡樂跑 392 392 9690 蔡進稻 CHOI CHUN TO  00:21:09 
2公里歡樂跑 394 394 9200 顏嘉瑩 Ngan Ka Ying  00:21:10 
2公里歡樂跑 395 395 9161 黃詠恩 Wong Wing Yan  00:21:12 
2公里歡樂跑 396 396 9691 蔡燕媚 CAI YAN MEI  00:21:13 
2公里歡樂跑 397 397 9572 邱趙棚輝  00:21:13 
2公里歡樂跑 398 398 9160 黃詠詩 Wong Wing Sze  00:21:13 
2公里歡樂跑 399 399 9573 甘秀蘭  00:21:15 
2公里歡樂跑 400 400 9244 謝健民 Tse Kin Man  00:21:18 
2公里歡樂跑 401 401 9243 謝凱程 Tse Hoi Ching  00:21:19 
2公里歡樂跑 402 402 9721 林勝娟    00:21:20 
2公里歡樂跑 403 403 9720 盧榮權 LO WING KUEN  00:21:21 
2公里歡樂跑 404 404 9762 羅想珍 LUO XIANG ZHEN  00:21:22 
2公里歡樂跑 405 405 9759 李汶殷 LI MAN YAN  00:21:23 
2公里歡樂跑 406 406 9713 謝芳英 XIE FANG YING  00:21:25 
2公里歡樂跑 407 407 9714 孫霈 SUN PUI  00:21:30 
2公里歡樂跑 408 408 9602 黎詠琪 LAI VICKY WING KI  00:21:31 
2公里歡樂跑 409 409 9603 胡素娟 HU SU JUAN  00:21:31 
2公里歡樂跑 410 410 9528 屈菲 QU FEI  00:21:35 
2公里歡樂跑 411 411 9176 杜詠怡 To Wing Yi  00:21:36 
2公里歡樂跑 412 412 9008 周偉倫 Chau Wai Lun  00:21:36 
2公里歡樂跑 413 413 9175 李穎澄 Li Wing Ching  00:21:36 
2公里歡樂跑 414 414 9210 謝文光 Tse Man Kwong  00:21:38 
2公里歡樂跑 414 414 9524 朱麗靜 ZHU LI JING  00:21:38 
2公里歡樂跑 416 416 9632 文小燕 WEN XIAO YAN  00:21:38 
2公里歡樂跑 417 417 9750 麥少華 BANIE MAK  00:21:38 
2公里歡樂跑 418 418 9520 黃光耀 HUANG GUANG YAO  00:21:38 
2公里歡樂跑 419 419 9519 黃心怡 HUANG VICKY  00:21:38 
2公里歡樂跑 420 420 9523 陳善延 CHAN SIN YIN  00:21:39 
2公里歡樂跑 421 421 9081 沈怡慧 Sham Yee Wai  00:21:44 
2公里歡樂跑 422 422 9130 盧佩君 Lo Pui Kwan  00:21:52 
2公里歡樂跑 423 423 9393 劉紫睛 Lau Tsz Ching   00:21:53 
2公里歡樂跑 424 424 9129 李茵童 Lee Yan Tung  00:21:53 
2公里歡樂跑 425 425 9158 侯煥基 Hau Woon Ki  00:21:56 
2公里歡樂跑 426 426 9157 侯鐫曦 Hau Chun Hei  00:21:57 
2公里歡樂跑 427 427 9514 黃偉蘭 HUANG WEI LAN  00:22:00 
2公里歡樂跑 428 428 9048 廖文謙 Liu Man Him  00:22:01 
2公里歡樂跑 429 429 9525 廖文鋒 LIU MANFU  00:22:02 
2公里歡樂跑 430 430 9700 丘小芬 QIU XIAN FEN  00:22:09 
2公里歡樂跑 431 431 9402 余智鴻 Yu Zhi Hong   00:22:10 
2公里歡樂跑 432 432 9422 朱萃芳 Zhu Cui Fang   00:22:11 
2公里歡樂跑 433 433 9366 張小藝 Zhang Xiao Yi   00:22:12 
2公里歡樂跑 434 434 9411 賴詠琦 Lai Wing Ki   00:22:13 
2公里歡樂跑 435 435 9789 冼文標 Sin Man Biu  00:22:13 
2公里歡樂跑 436 436 9322 麥海誼 Mak Hoi Yi   00:22:15 
2公里歡樂跑 437 437 9733 楊玉玲 YANG YU LING  00:22:16 
2公里歡樂跑 438 438 9033 方鈺怡 Fong Yuk Yi  00:22:18 
2公里歡樂跑 439 439 9782 賴仙萍 LAI XIAN PING  00:22:18 
2公里歡樂跑 440 440 9036 鄧韻瑤 Tang Wan Yiu  00:22:18 
2公里歡樂跑 441 441 9780 陳碧雲 CHEN BI YUN  00:22:19 
2公里歡樂跑 442 442 9658 黃麗媚 HUANG LI MEI  00:22:21 
2公里歡樂跑 443 443 9657 曾梓豪 ZENG TSZ HO  00:22:22 
2公里歡樂跑 444 444 9526 王飛    00:22:22 
2公里歡樂跑 445 445 9732 鄧志輝 TANG CHI FAI DEE  00:22:22 
2公里歡樂跑 446 446 9292 陳瑾灝 Chen Michael  00:22:24 
2公里歡樂跑 447 447 9291 陳錦熙 Chen Jessie  00:22:25 
2公里歡樂跑 448 448 9819 林曉珊 Lam Hiu Shan  00:22:29 
2公里歡樂跑 449 449 9818 何穎詩 Ho Wing Sze  00:22:29 
2公里歡樂跑 450 450 9771 肖增超 XIAO ZENG CHAO  00:22:34 
2公里歡樂跑 451 451 9805 程美瑩 Tcheng Mei Ying Alice  00:22:36 
2公里歡樂跑 452 452 9804 曾國豪 Tsang Kwok Ho  00:22:36 
2公里歡樂跑 453 453 9803 曾俙文 Tsang Hei Man  00:22:37 
2公里歡樂跑 454 454 9174 譚惠芳 Tam Wai Fong  00:22:38 
2公里歡樂跑 455 455 9568 陳嘉玲 CHEN JIA LING  00:22:40 
2公里歡樂跑 456 456 9715 蔡英容    00:22:43 
2公里歡樂跑 457 457 9539 吳梓慧 NG TSZ WAI  00:22:43 
2公里歡樂跑 458 458 9540 蔡學坤 CAI XUE KUN  00:22:43 
2公里歡樂跑 459 459 9521 朱潔英 ZHU JIE YING  00:22:44 
2公里歡樂跑 460 460 9427 方心榆 Fong Sum Yu  00:22:44 
2公里歡樂跑 461 461 9106 李盈凝 Lee Ying Ying  00:22:45 
2公里歡樂跑 462 462 9702 馮素英 FENG SU YING  00:22:46 
2公里歡樂跑 463 463 9370 陳琪鋒 Chen Ki Fung   00:22:46 
2公里歡樂跑 464 464 9426 戴綺華 Tai Tee Wah  00:22:47 
2公里歡樂跑 465 465 9353 賴宇傑 Lai Yu Kit   00:22:49 
2公里歡樂跑 466 466 9188 溫月云 Wan Yuet Wan  00:22:49 
2公里歡樂跑 467 467 9351 黃嘉良 Huang Ka Leung   00:22:49 
2公里歡樂跑 468 468 9141 麥詠嘉 Mak Wing Ka  00:22:49 
2公里歡樂跑 469 469 9189 林綺晴 Lam Yee Ching  00:22:50 
2公里歡樂跑 470 470 9377 劉美儀 Liu Mei Yee   00:22:51 
2公里歡樂跑 471 471 9678 梁嘉琪 LEUNG KA KI  00:22:51 
2公里歡樂跑 472 472 9680 陳遠鈴 CHAN YUAN LING  00:22:52 
2公里歡樂跑 473 473 9681 陳正光 CHAN CHING KONG  00:22:54 
2公里歡樂跑 474 474 9143 馬偉友 Ma Wai Yau  00:22:54 
2公里歡樂跑 475 475 9140 麥偉興 Mak Wai Hing  00:22:55 
2公里歡樂跑 476 476 9505 胡錦富 Woo Kam Fu  00:22:55 
2公里歡樂跑 477 477 9503 胡錦昌 Woo Kam Cheong  00:22:55 
2公里歡樂跑 478 478 9500 倫熙樂 Lun Hei Lok  00:22:56 
2公里歡樂跑 479 479 9679 劉祝紅 LIU ZHU HONG  00:22:56 
2公里歡樂跑 480 480 9235 陳佩枝 Chan Pui Ching  00:23:03 
2公里歡樂跑 481 481 9813 史佩玲 Sie Pui Ling  00:23:04 
2公里歡樂跑 482 482 9082 唐瑞娟 Tong Sui Kuen  00:23:04 
2公里歡樂跑 483 483 9056 馮佩珍 Fung Pui Chun  00:23:15 
2公里歡樂跑 484 484 9055 馮芝雲 Fung Chi Wan  00:23:16 
2公里歡樂跑 485 485 9712 胡珈熒 HU KA YING  00:23:16 
2公里歡樂跑 486 486 9042 李麗鳳 Lee Lai Fung  00:23:19 
2公里歡樂跑 487 487 9198 黃雅美 Wong Nga Mi  00:23:22 
2公里歡樂跑 488 488 9123 彭少芝 Pang Siu Chi  00:23:24 
2公里歡樂跑 489 489 9382 張勝喆 Zhang Sheng Zhe   00:23:25 
2公里歡樂跑 490 490 9070 周佩蓉 Chau Pui Yung  00:23:28 
2公里歡樂跑 491 491 9071 林奧芙 Lam O Fu  00:23:28 
2公里歡樂跑 492 492 9621 馮繼紅 FENG JI HONG  00:23:31 
2公里歡樂跑 493 493 9696 劉燕玲 LING YAN LING  00:23:39 
2公里歡樂跑 494 494 9694 張科澤 ZHANG KE ZE JIMMY  00:23:39 
2公里歡樂跑 495 495 9626 陳偉華 CHEN WEI HUA  00:23:41 
2公里歡樂跑 496 496 9625 陳政燁 CHEN CHING IP  00:23:41 
2公里歡樂跑 497 497 9684 李家樂 LEE KA LOK  00:23:42 
2公里歡樂跑 498 498 9685 余秀堅 YU SAU KIN  00:23:54 
2公里歡樂跑 499 499 9812 史佩玉 Sie Pui Yuk  00:23:55 
2公里歡樂跑 500 500 9273 余芷同 Yu Tsz Tung  00:24:03 
2公里歡樂跑 501 501 9620 李心怡 LI XINYI  00:24:03 
2公里歡樂跑 502 502 9117 畢志昊 Pat Chi Ho  00:24:07 
2公里歡樂跑 503 503 9381 姚嘉希 Yiu Ka Hei   00:24:08 
2公里歡樂跑 504 504 9374  郭瑩瑩 Guo Ying Ying   00:24:08 
2公里歡樂跑 505 505 9013 馮啟安 Fung Kai On  00:24:28 
2公里歡樂跑 506 506 9290 黃慧雯 Wong Wai Man  00:24:33 
2公里歡樂跑 507 507 9624 吳雲 WU YUN  00:24:35 
2公里歡樂跑 508 508 9551 盛夢先 SHENG MEM XIAN  00:24:36 
2公里歡樂跑 509 509 9509 陳樂怡 CHAN LOK YI  00:24:38 
2公里歡樂跑 510 510 9510 黃珍 HUANG ZHEN  00:24:39 
2公里歡樂跑 511 511 9552 盛天源 SHING TIN YUEN  00:24:40 
2公里歡樂跑 512 512 9080 李淳希 Lee Atsuki Rafael  00:24:47 
2公里歡樂跑 513 513 9113 許惠邦 Hui Wai Pong  00:24:48 
2公里歡樂跑 514 514 9661 袁愛蕾 YUAN AI LAI  00:24:56 
2公里歡樂跑 515 515 9644 鄧依丹 DENG YI DAN  00:24:57 
2公里歡樂跑 516 516 9623 相文晴 SHEUNG MAN CHING  00:25:00 
2公里歡樂跑 517 517 9181 梁婉茵 Leung Yuen Yan  00:25:13 
2公里歡樂跑 518 518 9016 馬明居 Ma Ming Kui  00:25:15 
2公里歡樂跑 519 519 9054 周素娥 Chow So Nog  00:25:16 
2公里歡樂跑 520 520 9151 吳文輝 Gary Ng  00:25:16 
2公里歡樂跑 521 521 9150 陳佩英 Boogie Chan  00:25:18 
2公里歡樂跑 522 522 9118 畢聆欣 Pat Ling Yan  00:25:21 
2公里歡樂跑 523 523 9581 黎回嬌 LI HUI JIAO  00:25:23 
2公里歡樂跑 524 524 9615 呂群珍 LU QUN ZHEN  00:25:23 
2公里歡樂跑 525 525 9580 梁穎琳 LIANG WINNIE  00:25:24 
2公里歡樂跑 526 526 9614 張芝琳 CHEUNG GELINE  00:25:24 
2公里歡樂跑 527 527 9534 趙韋添 CHIU WAI TIM  00:25:28 
2公里歡樂跑 528 528 9221 張玉蘭 Cheung Yuk Lan  00:25:29 
2公里歡樂跑 529 529 9228 伍雁珍 Ng Ngan Chun  00:25:29 
2公里歡樂跑 530 530 9535 趙焯穎 CHIU CHEUK WING  00:25:29 
2公里歡樂跑 531 531 9057 馮炳華 Fung Ping Wah  00:25:37 
2公里歡樂跑 532 532 9627 冼玉英 XIAN YU YING  00:25:41 
2公里歡樂跑 533 533 9549 姚敏怡 YIU MAN YI  00:25:43 
2公里歡樂跑 534 534 9778 黃新婷 HUANG XIN TING  00:25:45 
2公里歡樂跑 535 535 9711 劉思辰 LIU SI CHEN  00:25:46 
2公里歡樂跑 536 536 9590 陳嘉璐 CHAN KA LO  00:25:47 
2公里歡樂跑 537 537 9706 張文朗 CHEUNG MAN LONG  00:25:48 
2公里歡樂跑 538 538 9634 曹玉英 CAO YU YING  00:25:48 
2公里歡樂跑 539 539 9703 張少初 CHEUNG SIU CHOR  00:25:48 
2公里歡樂跑 540 540 9576 龔美溪 GONG MEIXI  00:25:49 
2公里歡樂跑 541 541 9577 謝丹 XEI DAN  00:25:50 
2公里歡樂跑 542 542 9068 陳佩清 Chan Pui Ching  00:25:52 
2公里歡樂跑 543 543 9067 鄧民超 Tang Man Chiu  00:25:53 
2公里歡樂跑 544 544 9047 張寳齡 Cheung Po Ling  00:25:54 
2公里歡樂跑 545 545 9088 梁彥 Leung Yin Hang  00:25:54 
2公里歡樂跑 546 546 9739 李庚俊 LI KANG CHUN  00:25:56 
2公里歡樂跑 547 547 9579 何小容 HO SIU YUNG  00:26:08 
2公里歡樂跑 548 548 9578 鄭鎧瑤 CHENG HOI YIU  00:26:08 
2公里歡樂跑 549 549 9313 邱君麟 Qiu Ben   00:26:09 
2公里歡樂跑 550 550 9312 馬健津 Ma Kin Chun  00:26:10 
2公里歡樂跑 551 551 9550 杜愛霞 TO OI HA  00:26:11 
2公里歡樂跑 552 552 9776 黃智健 KOBEISSI SAM  00:26:17 
2公里歡樂跑 553 553 9747 謝小萍 XIE XIAO PING  00:26:21 
2公里歡樂跑 554 554 9761 李政軒 LI CHING HIN  00:26:25 
2公里歡樂跑 555 555 9760 李梓瑗 LI TSZ WUN  00:26:28 
2公里歡樂跑 556 556 9485 連曉彤 Lin Hiu Tung  00:26:32 
2公里歡樂跑 557 557 9488 岑詠恩 Shum Wing Yan  00:26:32 
2公里歡樂跑 558 558 9594 肖承軒 XIAO CHENGXUAN SEAN  00:26:35 
2公里歡樂跑 559 559 9538 劉宇嵐 LIU YU LAN  00:26:42 
2公里歡樂跑 560 560 9138 蔡以德 Choi Yi Tak  00:26:44 
2公里歡樂跑 561 561 9136 蔡耀強 Choi Yiu Keung  00:26:44 
2公里歡樂跑 562 562 9537 吳政希 WU CHING HEI  00:26:44 
2公里歡樂跑 563 563 9125 陳家良 Chan Ka Leung  00:26:45 
2公里歡樂跑 564 564 9126 陳翔竣 Chan Cheung Chun  00:26:46 
2公里歡樂跑 565 565 9533 趙婥鈴 CHIU AURELIA CHEUK LING  00:26:46 
2公里歡樂跑 566 566 9536 鄭潔楹 CHENG GIT YING  00:26:46 
2公里歡樂跑 567 567 9768 黃利花 HUANG LI HUA  00:26:46 
2公里歡樂跑 568 568 9135 張麗妹 Cheung Lai Mui  00:26:47 
2公里歡樂跑 569 569 9086 區淑雯 Au Suk Man  00:26:47 
2公里歡樂跑 570 570 9475 巫偉成 Mo Wai Shing  00:26:48 
2公里歡樂跑 571 571 9476 巫熹汶 Mo Hei Man Hayman  00:26:48 
2公里歡樂跑 572 572 9474 李寶琪 Lee Po Ki Mavis  00:26:49 
2公里歡樂跑 573 573 9137 蔡學雅 Choi Hok Nga  00:26:49 
2公里歡樂跑 574 574 9038 羅希言 Lo Hei Yin  00:26:50 
2公里歡樂跑 575 575 9039 陳燕芳 Chan Yin Fan  00:26:51 
2公里歡樂跑 576 576 9587 盧文珊 LO MAN SHAN  00:26:56 
2公里歡樂跑 577 577 9254 杜潔貞 To Kit Ching  00:27:03 
2公里歡樂跑 578 578 9809 屈美容 Wat Mee Yung  00:27:05 
2公里歡樂跑 579 579 9808 魏燕芳 Ngai Yin Fong  00:27:08 
2公里歡樂跑 580 580 9810 黃素蘭 Wong So Lan  00:27:09 
2公里歡樂跑 581 581 9085 宗偉陵 Chung Wai Ling  00:27:09 
2公里歡樂跑 582 582 9765 黎慧貞 LAI WAI CHING  00:27:15 
2公里歡樂跑 583 583 9556 陳金菊 CHAN KAM KUK  00:27:18 
2公里歡樂跑 584 584 9586 王宏英 WANG HONG YING  00:27:18 
2公里歡樂跑 585 585 9555 陳嘉城 CHAN KA SHING  00:27:19 
2公里歡樂跑 586 586 9218 蔡玉英 Choy Yuk Ying  00:27:20 
2公里歡樂跑 587 587 9212 黃惠玲 Wong Wai Ling  00:27:20 
2公里歡樂跑 588 588 9222 林歡娣 Lam Foon Tai  00:27:20 
2公里歡樂跑 589 589 9598 張運杰 CHEUNG WAN KIT  00:27:21 
2公里歡樂跑 590 590 9211 黃曉梅 Wong Hiu Mui  00:27:21 
2公里歡樂跑 591 591 9599 李容 LI YYONG  00:27:21 
2公里歡樂跑 592 592 9477 鍾玉秋 Chung Yuk Chow  00:27:22 
2公里歡樂跑 593 593 9478 鍾英蓮 Chung Ying Lin  00:27:22 
2公里歡樂跑 594 594 9227 劉小稜 Lau Siu Ling  00:27:23 
2公里歡樂跑 595 595 9799 馮翠儀 Fung Chui Yee  00:27:33 
2公里歡樂跑 596 596 9518 胡葉 WU YE  00:27:35 
2公里歡樂跑 597 597 9516 黃子軒 WONG TSZ HIN  00:27:36 
2公里歡樂跑 598 598 9554 舒萍 SHU PING  00:27:41 
2公里歡樂跑 599 599 9553 陳昕瑤 CHAN YAN YIU SURI  00:27:41 
2公里歡樂跑 600 600 9014 徐傑雄 Chui Kit Hung  00:27:43 
2公里歡樂跑 601 601 9496 陳淑楨 Chan Shuk Ching  00:27:44 
2公里歡樂跑 602 602 9498 梁月韻 Leung Yuet Wan Evangeline  00:27:44 
2公里歡樂跑 603 603 9083 謝復香 Tse Fook Heung  00:27:48 
2公里歡樂跑 604 604 9406 石鈞文 Shi Kwan Man  00:27:49 
2公里歡樂跑 605 605 9710 劉珈佃 LIU KA TIN  00:27:49 
2公里歡樂跑 606 606 9084 熊月卿 Hung Yuet Hing  00:27:49 
2公里歡樂跑 607 607 9616 俞友兒 YU YOU ER  00:27:51 
2公里歡樂跑 608 608 9461 陸泓溱 Luk Wang Tsun Adven  00:28:02 
2公里歡樂跑 609 609 9262 周楚廷 Chow Cho Ting  00:28:03 
2公里歡樂跑 610 610 9408  陳梓軒 Chen Tsz Hin   00:28:08 
2公里歡樂跑 611 611 9213 黃愛麗 Wong Oi Lai  00:28:09 
2公里歡樂跑 612 612 9421 余智明 Yu Chi Ming   00:28:10 
2公里歡樂跑 613 613 9229 史麗珍 Sze Lai Chun  00:28:10 
2公里歡樂跑 614 614 9239 招集文 Chiu Chup Man  00:28:15 
2公里歡樂跑 615 615 9548 周美云 ZHOU MEI YUN  00:28:19 
2公里歡樂跑 616 616 9547 姚凱欣 YIU HOI YAN  00:28:19 
2公里歡樂跑 617 617 9355 梁智超 Liang Chi Chiu   00:28:29 
2公里歡樂跑 618 618 9517 黃承德    00:28:37 
2公里歡樂跑 619 619 9515 黃芷惠 WONG TSZ WAI  00:28:39 
2公里歡樂跑 620 620 9230 黃兆琼 Wong Siu King  00:28:47 
2公里歡樂跑 621 621 9740 鄭淑珍 ZHENG SHU ZHEN  00:28:49 
2公里歡樂跑 622 622 9619 譚花    00:28:52 
2公里歡樂跑 623 623 9618 曾祺軒 ZENG QIXUAN  00:28:53 
2公里歡樂跑 624 624 9226 范曉燕 Fan Hiu Yin  00:29:04 
2公里歡樂跑 625 625 9217 李敏婷  00:29:05 
2公里歡樂跑 626 626 9215 陳蔡翠芳 Chan Choi Chui Fong  00:29:06 
2公里歡樂跑 627 627 9002 歐陽錦添 Au Yeung Kam Tim  00:29:26 
2公里歡樂跑 628 628 9015 朱妙玲 Chu Miu Ling  00:29:28 
2公里歡樂跑 629 629 9613 謝仕杰 TSE SI KIT  00:29:30 
2公里歡樂跑 630 630 9612 謝雨嫣 TSE YU YIN  00:29:30 
2公里歡樂跑 631 631 9171 丘麗燕 Chiu Li Yen  00:29:32 
2公里歡樂跑 632 632 9806 陳巧蓮 Chan Hau Lin  00:29:39 
2公里歡樂跑 633 633 9811 蘇紫燕 Soo Che Yin  00:29:40 
2公里歡樂跑 634 634 9288 梁梓軒 Leung Tsz Hin  00:29:50 
2公里歡樂跑 635 635 9287 林菁梅 Lum Ching Mui  00:29:50 
2公里歡樂跑 636 636 9168 林青雲 Lum Ching Wan Carmen  00:29:51 
2公里歡樂跑 637 637 9807 吳曼嫦 Ng Man Sheung  00:29:52 
2公里歡樂跑 638 638 9169 董上熙 Tung Sheung Hei  00:29:55 
2公里歡樂跑 639 639 9766 黃琴 HUANG QIU  00:30:05 
2公里歡樂跑 640 640 9707 古潛花 GU QIAN HUA  00:30:05 
2公里歡樂跑 641 641 9717 何德住 HE DE ZHU  00:30:06 
2公里歡樂跑 642 642 9591 蔣秋嬋 JIANG QIU CHAN  00:30:12 
2公里歡樂跑 643 643 9705 黃偉 VIVI  00:30:12 
2公里歡樂跑 644 644 9220 梁玉琼 Leung Yuk King  00:31:29 
2公里歡樂跑 645 645 9214 馮淑娟 Fung Suk Kuen  00:31:30 
2公里歡樂跑 646 646 9219 林秀芬 Lam Sau Fan  00:31:30 
2公里歡樂跑 647 647 9233 郭艷清 Kwok Yim Chimg  00:31:30 
2公里歡樂跑 648 648 9223 李群貞 Lee Kwan Jing  00:31:31 
2公里歡樂跑 649 649 9240 黎少芬 Lai Siu Fun  00:31:32 
2公里歡樂跑 650 650 9238 李家璧 Lee Ka Pik  00:31:32 
2公里歡樂跑 651 651 9237 盧鳳貞 Lo Fung Ching  00:31:32 
2公里歡樂跑 652 652 9236 梁瑞群 Leung Sui Kwan  00:31:34 
2公里歡樂跑 653 653 9209 郭勤喜 Kwok Kun Hei  00:31:34 
2公里歡樂跑 654 654 9216 林花彩 Lam Fa Choi  00:31:38 
2公里歡樂跑 655 655 9018 陳慧雯 Chan Wai Man  00:33:49 
2公里歡樂跑 656 656 9104 陳雪茵 Chan Suet Yan  00:33:49 
2公里歡樂跑 657 657 9165 胡文惠 Wu Man Wai  00:34:30 
2公里歡樂跑 658 658 9241 梁海新 Leung Hoi San  00:34:31